User: anonymous   Login
Location: Cactus School
(34.5700°N, 118.0931°W)
Time: 09:56:52
(UTC-08:00)
Language:

Envisat - Orbit

View from above orbital plane
View from above orbital plane
View from above satellite
View from above satellite

Ground track
Ground track

The orbit data is extracted from the following two-line orbital elements,

1 27386U 02009A   18056.12260781 -.00000011  00000-0  10010-4 0  9993
2 27386  98.1990  95.3820 0001332  92.1995 267.9362 14.37915992837424
Epoch (UTC): 25 February 2018 02:56:33
Eccentricity: 0.0001332
inclination: 98.1990°
perigee height: 764 km
apogee height: 766 km
right ascension of ascending node: 95.3820°
argument of perigee: 92.1995°
revolutions per day: 14.37915992
mean anomaly at epoch: 267.9362°
orbit number at epoch: 83742

The dashed part of the orbit path shows where the satellite is in the earth's shadow,  

DLR